GW6819 Weather Reports


Display with metric or nautical units.
time (UTC)temp
F
wind
direction
speed
MPH
gust
MPH
rain 1hr
in
rain 24hr
in
rain mn
in
humidity
%
barometer
mb
20260508025620 48 0 0.0 2.0 0.00 0.00 0.00 90 1015.1
20260508024721 48 0 0.0 2.0 0.00 0.00 0.00 90 1015.1
20260508023820 48 0 0.0 2.0 0.00 0.00 0.00 90 1015.2
20260508022921 48 0 0.0 2.0 0.00 0.00 0.00 89 1015.1
20260508022020 48 0 0.0 2.0 0.00 0.00 0.00 89 1015.1
20260508021121 48 0 0.0 0.0 0.00 0.00 0.00 89 1015.0
20260508020220 48 0 0.0 2.0 0.00 0.00 0.00 89 1015.1
20260508015321 48 0 0.0 2.0 0.00 0.00 0.00 89 1015.1
20260508014420 48 0 0.0 0.0 0.00 0.00 0.00 89 1015.0
20260508013520 48 0 0.0 4.0 0.00 0.00 0.00 88 1014.9
20260508012621 48 0 0.0 6.0 0.00 0.00 0.00 88 1014.8
20260508011721 49 0 0.0 6.0 0.00 0.00 0.00 88 1014.8
20260508010821 49 0 0.0 4.0 0.00 0.00 0.00 88 1014.7
20260508005920 49 0 0.0 4.0 0.00 0.00 0.00 88 1014.7
20260508005020 49 0 0.0 2.0 0.00 0.00 0.00 88 1014.8
20260508004120 49 0 0.0 6.0 0.00 0.00 0.00 87 1014.9
20260508003222 49 0 0.0 4.0 0.00 0.00 0.00 87 1015.0
20260508002320 49 0 0.0 2.0 0.00 0.00 0.00 87 1014.9
20260508001420 49 0 0.0 6.0 0.00 0.00 0.00 87 1014.9
20260508000520 49 0 0.0 6.0 0.00 0.00 0.00 87 1015.0
20260507235621 49 0 0.0 4.0 0.00 0.00 0.00 87 1015.1
20260507234721 49 0 0.0 4.0 0.00 0.00 0.00 86 1015.1
20260507233820 49 0 0.0 6.0 0.00 0.00 0.00 86 1015.3
20260507232921 49 0 0.0 8.0 0.00 0.00 0.00 86 1015.3
20260507232020 49 0 0.0 4.0 0.00 0.00 0.00 85 1015.2
20260507230220 49 128 2.0 10.0 0.00 0.00 0.00 85 1015.3
20260507225321 49 0 0.0 8.0 0.00 0.00 0.00 84 1015.3
20260507224420 50 0 0.0 4.0 0.00 0.00 0.00 84 1015.3
20260507223520 50 0 0.0 6.0 0.00 0.00 0.00 83 1015.4
20260507221720 50 0 0.0 8.0 0.00 0.00 0.00 83 1015.5
20260507220822 50 0 0.0 6.0 0.00 0.00 0.00 82 1015.5
20260507215922 50 0 0.0 6.0 0.00 0.00 0.00 82 1015.5
20260507215021 50 0 0.0 4.0 0.00 0.00 0.00 81 1015.4
20260507213222 51 0 0.0 4.0 0.00 0.00 0.00 81 1015.4
20260507212322 51 0 0.0 6.0 0.00 0.00 0.00 81 1015.3
20260507211421 51 0 0.0 2.0 0.00 0.00 0.00 81 1015.3
20260507203821 51 0 0.0 2.0 0.00 0.00 0.00 80 1015.1
20260507202920 51 0 0.0 0.0 0.00 0.00 0.00 79 1015.0
20260507202022 52 0 0.0 2.0 0.00 0.00 0.00 78 1014.9
20260507201121 52 0 0.0 2.0 0.00 0.00 0.00 77 1014.8
20260507195321 53 0 0.0 8.0 0.00 0.00 0.00 76 1014.5
20260507194420 54 0 0.0 4.0 0.00 0.00 0.00 75 1014.4
20260507193521 54 0 0.0 8.0 0.00 0.00 0.00 74 1014.3
20260507192621 54 0 0.0 6.0 0.00 0.00 0.00 74 1014.4
20260507191721 54 0 0.0 4.0 0.00 0.00 0.00 74 1014.5
20260507190821 55 0 0.0 6.0 0.00 0.00 0.00 72 1014.4
20260507185922 55 0 0.0 2.0 0.00 0.00 0.00 71 1014.4
20260507185020 56 0 0.0 4.0 0.00 0.00 0.00 69 1014.3
20260507183221 57 0 0.0 0.0 0.00 0.00 0.00 67 1014.2
20260507182321 58 0 0.0 2.0 0.00 0.00 0.00 66 1014.3
20260507181422 58 0 0.0 4.0 0.00 0.00 0.00 64 1014.2
20260507180522 59 0 0.0 4.0 0.00 0.00 0.00 63 1014.1
20260507175620 59 140 0.0 8.0 0.00 0.00 0.00 62 1014.0
20260507174721 60 0 0.0 8.0 0.00 0.00 0.00 60 1014.0
20260507173822 60 0 0.0 2.0 0.00 0.00 0.00 62 1014.0
20260507172921 59 0 0.0 4.0 0.00 0.00 0.00 63 1014.0
20260507172021 60 111 2.0 8.0 0.00 0.00 0.00 61 1014.0
20260507171121 60 139 2.0 12.0 0.00 0.00 0.00 59 1014.1
20260507170220 61 127 1.0 14.0 0.00 0.00 0.00 57 1014.0
20260507164422 62 132 2.0 10.0 0.00 0.00 0.00 56 1014.1
20260507163520 62 137 0.0 12.0 0.00 0.00 0.00 54 1014.1
20260507162621 63 0 0.0 4.0 0.00 0.00 0.00 55 1014.1
20260507161721 62 0 0.0 8.0 0.00 0.00 0.00 56 1014.1
20260507160822 62 0 0.0 8.0 0.00 0.00 0.00 56 1014.1
20260507155921 64 0 0.0 6.0 0.00 0.00 0.00 53 1014.2
20260507155021 63 0 0.0 4.0 0.00 0.00 0.00 54 1014.2
20260507154121 62 0 0.0 4.0 0.00 0.00 0.00 54 1014.3
20260507153221 62 0 0.0 8.0 0.00 0.00 0.00 56 1014.3
20260507152322 61 0 0.0 8.0 0.00 0.00 0.00 58 1014.4
20260507151421 61 0 0.0 10.0 0.00 0.00 0.00 58 1014.3
20260507150522 60 0 0.0 6.0 0.00 0.00 0.00 58 1014.3
20260507142921 61 0 0.0 6.0 0.00 0.00 0.00 55 1014.5
20260507141121 60 0 0.0 6.0 0.00 0.00 0.00 56 1014.6
20260507140221 60 0 0.0 4.0 0.00 0.00 0.00 58 1014.7
20260507135321 60 0 0.0 4.0 0.00 0.00 0.00 57 1014.7
20260507133521 59 0 0.0 6.0 0.00 0.00 0.00 60 1014.7
20260507132621 58 0 0.0 6.0 0.00 0.00 0.00 59 1014.8
20260507131721 58 128 0.0 10.0 0.00 0.00 0.00 58 1014.8
20260507125922 60 148 1.0 10.0 0.00 0.00 0.00 55 1014.9
20260507125021 61 148 1.0 6.0 0.00 0.00 0.00 54 1014.7
20260507122321 62 71 0.0 6.0 0.00 0.00 0.00 51 1014.9
20260507121421 62 68 2.0 10.0 0.00 0.00 0.00 53 1014.9
20260507120522 60 138 1.0 10.0 0.00 0.00 0.00 54 1015.0
20260507115622 61 0 0.0 6.0 0.00 0.00 0.00 55 1015.1
20260507114721 60 0 0.0 4.0 0.00 0.00 0.00 56 1015.0
20260507113822 60 0 0.0 6.0 0.00 0.00 0.00 57 1015.1
20260507112921 60 0 0.0 4.0 0.00 0.00 0.00 59 1015.1
20260507112021 59 0 0.0 8.0 0.00 0.00 0.00 60 1015.2
20260507110221 59 141 2.0 10.0 0.00 0.00 0.00 58 1015.2
20260507104421 61 0 0.0 4.0 0.00 0.00 0.00 60 1015.1
20260507103521 60 0 0.0 10.0 0.00 0.00 0.00 62 1015.1
20260507102621 59 0 0.0 8.0 0.00 0.00 0.00 63 1015.1
20260507101722 58 0 0.0 8.0 0.00 0.00 0.00 64 1015.1
20260507100821 58 0 0.0 8.0 0.00 0.00 0.00 66 1015.2
20260507095921 57 0 0.0 2.0 0.00 0.00 0.00 69 1015.3
20260507095021 55 0 0.0 2.0 0.00 0.00 0.00 75 1015.3
20260507094121 55 0 0.0 2.0 0.00 0.00 0.00 72 1015.3
20260507093222 56 0 0.0 4.0 0.00 0.00 0.00 70 1015.3
20260507092321 57 0 0.0 2.0 0.00 0.00 0.00 69 1015.4
20260507091421 57 0 0.0 4.0 0.00 0.00 0.00 72 1015.3
20260507090522 56 0 0.0 6.0 0.00 0.00 0.00 72 1015.3
20260507085621 56 0 0.0 4.0 0.00 0.00 0.00 73 1015.3
20260507084722 55 0 0.0 4.0 0.00 0.00 0.00 77 1015.4
20260507083821 54 0 0.0 2.0 0.00 0.00 0.00 76 1015.4
20260507082021 53 0 0.0 4.0 0.00 0.00 0.00 81 1015.4
20260507081122 52 0 0.0 4.0 0.00 0.00 0.00 82 1015.3
20260507080221 51 0 0.0 4.0 0.00 0.00 0.00 83 1015.4
20260507075322 50 0 0.0 6.0 0.00 0.00 0.00 84 1015.3
20260507074421 50 0 0.0 6.0 0.00 0.00 0.00 85 1015.3
20260507071722 46 0 0.0 4.0 0.00 0.00 0.00 92 1015.2
20260507070822 45 0 0.0 2.0 0.00 0.00 0.00 92 1015.2
20260507065921 45 0 0.0 0.0 0.00 0.00 0.00 92 1015.2
20260507065022 44 0 0.0 2.0 0.00 0.00 0.00 92 1015.2
20260507064121 43 0 0.0 0.0 0.00 0.00 0.00 92 1015.2
20260507063222 43 0 0.0 2.0 0.00 0.00 0.00 92 1015.1
20260507062321 43 0 0.0 4.0 0.00 0.00 0.00 92 1015.0
20260507061421 42 0 0.0 2.0 0.00 0.00 0.00 92 1014.9
20260507060521 42 0 0.0 2.0 0.00 0.00 0.00 92 1014.9
20260507055622 42 0 0.0 0.0 0.00 0.00 0.00 92 1014.8
20260507054721 41 0 0.0 0.0 0.00 0.00 0.00 92 1014.9
20260507053821 41 0 0.0 0.0 0.00 0.00 0.00 92 1014.9
20260507052921 42 0 0.0 0.0 0.00 0.00 0.00 92 1014.8
20260507052021 42 0 0.0 0.0 0.00 0.00 0.00 92 1014.7
20260507051121 42 0 0.0 0.0 0.00 0.00 0.00 92 1014.7
20260507050221 42 0 0.0 0.0 0.00 0.00 0.00 92 1014.7
20260507045321 42 0 0.0 0.0 0.00 0.00 0.00 92 1014.6
20260507044421 43 0 0.0 0.0 0.00 0.00 0.00 92 1014.7
20260507042621 43 0 0.0 0.0 0.00 0.00 0.00 92 1014.5
20260507041721 43 0 0.0 0.0 0.00 0.00 0.00 92 1014.6
20260507040821 43 0 0.0 0.0 0.00 0.00 0.00 92 1014.6
20260507035921 43 0 0.0 0.0 0.00 0.00 0.00 92 1014.6
20260507035021 43 0 0.0 0.0 0.00 0.00 0.00 92 1014.6
20260507034121 42 0 0.0 0.0 0.00 0.00 0.00 92 1014.6
20260507033221 42 0 0.0 0.0 0.00 0.00 0.00 92 1014.6
20260507032322 42 0 0.0 0.0 0.00 0.00 0.00 92 1014.5
20260507031421 42 0 0.0 0.0 0.00 0.00 0.00 92 1014.5
20260507030521 42 0 0.0 0.0 0.00 0.00 0.00 92 1014.5